GFSNGP_925_spd_000.txt.gz
Wind_Speed
8 9 9 10 11 11 12 10 8 10 13 9 10 10 15 13 13 11 10 11 12 12 16 16 17 18 20 20 23 18 17 14 15 14 10 11 8 11 16 18 17 17 19 20
3 4 9 12 14 14 15 14 9 12 13 7 15 12 12 11 11 12 12 13 13 16 16 16 18 20 24 24 27 13 16 19 20 20 14 8 10 13 16 17 16 19 19 20
2 9 9 2 4 5 4 6 9 5 8 12 10 10 12 8 10 12 12 13 13 13 15 17 19 23 24 27 30 26 23 19 12 9 11 7 12 13 18 17 19 19 20 18
2 5 3 3 12 12 9 7 7 7 8 7 11 13 12 10 9 11 11 12 13 15 17 18 22 23 25 28 30 33 30 22 12 10 9 13 7 10 18 18 20 21 18 14
1 3 9 11 4 6 5 10 10 7 7 10 13 10 4 9 10 8 10 14 16 18 20 22 22 24 28 29 30 31 32 19 20 5 13 9 9 12 18 20 21 14 14 14
2 2 3 2 7 6 8 8 8 9 10 8 12 6 6 13 13 14 17 18 19 21 21 22 23 27 26 27 28 28 28 19 13 14 13 11 12 16 16 17 16 14 12 14
4 4 6 9 4 4 3 2 5 5 9 8 6 4 9 11 11 17 18 20 23 21 20 20 24 24 24 26 27 23 19 16 15 17 16 15 13 15 15 18 17 11 14 21
3 3 6 2 2 1 4 6 4 2 4 6 8 9 10 9 12 17 18 22 22 23 20 23 23 23 22 23 24 22 18 17 16 16 17 14 13 14 19 18 11 13 18 20
9 5 8 2 5 4 2 3 2 3 6 8 7 10 10 10 12 16 20 21 24 21 23 25 21 21 21 23 19 19 18 21 18 17 15 10 16 18 16 10 12 14 15 18
2 7 9 5 3 8 6 2 2 4 5 10 8 8 10 10 13 16 19 22 20 25 25 21 24 24 20 21 20 19 18 18 18 16 17 15 15 15 11 12 9 10 13 13
9 12 9 8 5 6 3 5 5 6 10 6 7 9 11 12 16 19 21 20 25 23 22 23 25 23 20 18 16 14 15 16 19 14 14 15 14 9 8 8 9 10 9 9
8 4 2 4 4 3 4 3 6 4 5 8 11 11 16 15 20 21 23 25 24 24 25 25 24 21 20 14 9 10 12 15 16 16 14 14 11 12 15 15 12 14 11 10
8 4 3 2 5 3 4 3 5 4 7 8 14 16 18 18 20 25 23 24 25 27 25 23 24 23 19 11 11 9 11 12 14 15 14 11 10 12 13 15 14 15 11 10
6 5 3 3 3 5 4 1 2 4 10 12 16 16 18 18 21 20 22 25 26 27 23 22 24 20 13 11 9 7 6 9 10 11 11 11 12 14 14 12 13 13 11 9
6 2 4 2 6 4 3 2 5 7 11 12 14 15 16 17 19 22 23 24 24 25 25 22 21 22 20 13 8 11 14 8 6 11 12 10 12 12 12 12 12 14 11 6
5 6 5 3 3 2 2 4 6 8 11 13 13 13 13 18 20 22 21 21 21 24 26 23 22 23 17 14 10 13 13 6 6 10 11 11 9 11 12 10 11 12 12 6
5 6 6 3 1 2 4 7 8 8 10 12 12 14 22 21 22 20 22 23 24 25 28 25 23 18 13 11 11 13 10 6 10 12 12 9 10 11 10 10 10 12 11 10
8 8 7 2 2 4 4 5 4 8 11 14 19 21 20 17 17 23 24 26 24 24 25 24 20 15 12 10 11 12 10 10 11 10 11 10 8 11 13 11 11 10 10 10
9 7 4 2 5 5 4 7 12 13 17 20 20 20 21 21 21 20 22 22 22 22 21 19 16 12 12 10 10 10 11 11 11 12 13 10 8 11 11 12 11 9 11 11
6 4 5 6 8 10 12 14 15 16 19 18 19 20 19 19 17 22 22 22 25 27 21 20 13 12 12 8 10 9 10 9 12 13 13 11 9 11 9 12 13 13 11 11
3 3 6 9 12 14 15 16 16 19 22 20 19 17 18 20 20 23 19 19 24 22 22 17 15 16 13 13 13 11 11 12 11 12 12 12 10 10 11 12 13 12 10 11
2 6 9 14 16 17 17 17 17 17 17 18 18 17 18 19 20 19 23 25 24 19 17 19 16 15 16 12 9 11 10 12 13 13 13 13 12 11 9 13 13 13 12 12
7 11 14 15 15 17 17 19 23 21 18 15 15 16 18 19 20 17 19 20 29 20 21 19 16 15 15 16 17 15 15 15 14 14 14 14 13 14 13 14 14 14 14 14
12 13 15 17 16 12 15 22 19 19 20 20 17 17 18 18 18 17 21 26 26 26 21 16 15 17 18 19 17 15 14 15 17 17 17 17 17 18 17 15 15 14 15 15
14 16 16 17 13 15 19 20 15 13 14 13 13 19 19 18 18 25 26 27 26 24 20 17 17 19 21 22 21 20 18 18 17 17 17 17 17 16 15 16 17 16 16 16
15 14 15 16 18 19 19 16 14 15 12 13 17 20 22 23 24 24 25 24 24 23 22 20 20 20 24 26 25 24 22 21 20 19 19 20 20 20 20 19 18 17 17 18
16 16 15 15 16 18 19 18 15 10 10 16 19 19 19 23 24 24 23 23 23 22 22 23 23 24 26 28 28 28 26 25 23 20 19 19 20 20 20 19 17 16 16 16

GFSNGP_925_spd_003.txt.gz
Wind_Speed
4 6 5 4 5 6 4 6 6 9 8 13 6 8 6 6 8 9 7 7 7 6 13 14 17 20 23 24 28 30 32 31 29 25 8 4 1 2 11 13 9 8 14 15
3 7 9 5 8 8 7 7 6 3 7 9 6 7 7 9 10 8 8 8 7 10 11 12 16 19 21 24 27 30 31 32 35 15 5 7 11 15 13 4 8 13 15 16
2 4 5 5 4 3 2 2 2 1 5 8 10 10 8 8 7 6 5 6 6 10 10 13 16 18 21 22 25 28 31 30 22 14 13 9 7 20 8 9 11 17 17 8
2 3 2 5 4 3 6 6 7 13 11 10 7 7 8 6 5 4 3 5 9 9 13 12 13 18 19 21 24 26 24 26 22 17 13 9 9 11 7 11 15 14 4 8
2 1 5 7 2 3 4 4 9 10 8 7 5 4 4 5 3 2 4 6 7 11 8 11 15 19 18 19 21 23 19 19 17 13 13 11 16 14 13 12 11 7 5 9
2 4 6 7 4 6 4 2 4 7 6 4 2 2 3 6 6 4 9 10 10 11 11 11 14 16 14 16 19 15 16 16 19 19 17 17 17 22 14 11 13 5 10 14
4 3 7 8 2 5 5 6 5 5 4 1 1 4 5 8 3 8 11 9 13 10 6 11 17 14 13 16 17 14 15 17 18 21 22 24 23 5 13 13 6 8 10 12
2 2 7 6 2 7 5 4 6 5 5 3 3 5 5 2 5 11 9 12 12 9 12 18 13 13 16 15 14 14 16 16 18 17 18 9 12 16 15 6 7 9 12 14
8 6 7 6 6 5 6 6 5 4 2 2 5 3 2 4 6 8 12 15 14 19 19 14 14 18 15 9 12 17 20 16 16 17 14 16 14 11 6 6 9 9 12 13
4 4 4 7 4 5 5 6 6 6 6 4 4 1 4 4 7 12 16 18 19 19 16 17 22 19 10 13 14 16 11 14 16 17 17 16 12 9 6 10 11 10 11 12
3 3 5 5 6 6 6 5 7 6 4 4 1 5 6 5 10 12 14 17 19 19 19 23 24 18 19 22 15 10 10 13 13 15 17 17 11 6 10 10 9 11 11 9
6 4 4 4 7 7 6 7 7 6 4 8 14 7 11 8 12 16 18 21 20 22 24 25 21 22 26 25 13 9 10 9 11 13 15 12 8 9 12 15 14 14 12 8
4 5 6 9 8 6 5 6 12 9 11 7 14 14 13 9 15 15 19 20 20 22 22 23 27 25 18 10 12 11 10 10 9 9 10 8 10 14 16 15 13 14 13 7
9 10 4 6 3 7 11 12 11 16 17 16 13 12 11 12 11 16 18 22 23 21 26 23 24 23 20 24 18 10 9 12 9 9 12 11 12 12 13 14 14 14 12 7
7 5 5 8 5 10 13 13 8 7 10 11 11 7 11 9 12 19 21 23 21 25 22 22 23 23 20 20 14 12 13 16 12 5 7 10 11 12 11 12 12 11 10 5
7 6 4 7 11 8 8 8 7 5 7 5 5 10 10 12 20 21 24 21 22 25 29 28 26 25 20 17 11 9 13 9 5 6 8 11 13 9 12 12 10 11 10 5
8 7 7 7 8 7 7 7 8 4 2 5 10 13 13 19 19 23 27 25 24 23 23 26 28 21 18 15 11 11 10 3 4 8 10 12 10 10 8 13 12 11 10 9
9 11 12 10 7 6 6 4 1 5 8 10 13 17 18 18 19 25 25 23 23 23 21 23 21 20 17 13 13 12 13 14 13 11 12 14 12 7 11 12 12 12 9 9
18 15 18 16 12 7 3 6 8 10 12 14 16 17 18 19 19 19 20 20 21 23 24 25 23 20 17 15 13 14 13 13 12 11 13 15 12 10 10 11 11 12 11 11
16 16 13 8 4 4 7 10 11 12 14 15 17 19 20 16 15 17 19 20 21 25 28 26 25 20 19 15 14 13 12 13 11 11 14 14 12 11 11 9 12 13 13 13
9 7 2 4 7 9 12 13 12 14 16 14 12 16 17 19 18 18 20 17 22 26 21 26 22 23 23 19 17 16 16 15 14 13 15 15 13 12 12 11 10 12 12 11
3 2 5 8 10 13 13 11 12 13 15 13 12 13 14 18 19 22 18 20 24 22 30 25 26 26 21 17 16 17 19 18 18 15 16 16 15 14 13 10 12 13 13 13
5 8 8 9 12 14 13 15 18 16 15 15 16 14 14 18 20 18 16 16 20 25 29 28 26 23 18 17 18 19 20 19 19 20 17 17 17 16 16 15 14 14 15 14
10 10 12 14 13 11 13 21 21 21 21 20 16 16 15 16 22 18 19 24 25 25 26 27 24 20 17 20 21 22 23 23 21 19 20 21 21 20 20 20 19 17 15 15
14 15 15 16 15 16 19 19 19 20 18 15 11 5 11 16 19 24 25 26 27 25 25 25 23 21 19 21 24 28 29 27 25 22 22 22 21 22 21 20 17 17 17 17
13 15 17 17 18 20 22 23 21 23 18 7 10 14 15 16 21 22 22 22 23 23 24 23 23 23 23 23 24 27 29 31 30 28 27 25 25 23 24 24 23 21 19 17
15 13 14 17 22 23 20 17 12 14 14 13 15 18 17 21 22 21 20 21 22 22 23 24 24 24 24 24 27 29 31 32 32 31 30 28 26 25 23 22 22 21 20 20

GFSNGP_925_spd_006.txt.gz
Wind_Speed
2 3 1 1 2 1 4 4 5 7 7 6 6 7 6 8 7 7 6 5 5 3 2 5 10 11 13 15 18 19 19 22 20 22 18 13 16 19 15 16 13 11 11 14
0 5 6 3 5 5 4 4 4 9 5 5 5 8 6 6 6 5 3 2 3 4 3 6 8 8 10 13 13 14 17 15 20 19 17 15 15 15 17 18 7 7 16 15
3 5 6 5 4 3 1 4 3 6 6 6 5 6 6 5 6 5 3 4 5 0 2 7 5 6 8 9 10 11 10 12 18 18 17 18 17 14 18 12 15 17 12 4
2 4 1 5 5 4 9 3 10 11 7 6 7 5 6 5 5 6 6 5 2 1 2 4 1 5 7 6 8 11 10 15 17 16 19 18 10 12 13 13 18 9 2 2
3 3 5 6 4 6 5 3 4 9 7 5 7 5 3 5 5 5 4 3 2 3 5 6 3 6 6 7 10 12 13 14 16 17 18 20 19 22 17 20 7 3 2 4
3 4 6 6 2 4 5 4 9 7 8 7 6 3 4 7 3 3 4 5 4 3 5 3 9 13 8 8 10 12 13 15 16 16 18 21 22 21 17 6 3 5 4 6
3 2 8 7 7 2 5 7 8 8 7 7 5 5 4 1 2 4 4 5 6 5 5 13 14 7 9 11 12 11 11 15 16 16 16 13 10 6 9 3 8 6 5 6
3 2 7 7 5 7 6 3 7 6 6 6 6 5 4 4 2 8 12 13 13 12 13 11 8 17 16 14 11 10 15 16 13 12 12 13 11 10 5 7 5 3 6 6
9 7 5 6 6 2 6 5 6 7 6 7 6 4 6 4 8 12 10 11 11 11 10 12 20 22 18 14 12 16 13 9 10 12 12 13 9 1 5 4 3 3 5 5
3 5 7 7 2 5 5 6 6 6 7 6 4 5 7 6 7 8 9 9 10 12 15 18 22 16 12 16 20 20 14 9 10 9 11 11 8 3 4 3 4 4 4 4
4 4 2 2 3 7 7 7 7 8 8 6 10 7 7 5 6 4 5 8 13 16 17 20 20 22 24 22 23 22 14 9 7 6 8 7 4 4 6 6 5 6 6 5
7 7 6 5 7 8 8 8 8 8 10 11 13 7 9 6 3 3 7 14 18 18 20 19 23 25 25 16 17 12 13 12 7 6 6 1 2 4 6 7 8 8 8 6
5 6 6 4 9 8 7 6 9 16 16 10 12 12 7 2 2 8 13 17 18 20 21 21 26 24 24 19 20 22 17 15 11 6 3 4 4 7 11 10 10 8 8 6
4 7 3 4 6 7 13 15 19 18 19 16 12 7 4 5 8 10 15 18 20 21 22 24 23 23 24 17 18 22 14 9 13 11 5 4 4 7 8 9 11 10 9 6
8 2 6 7 8 11 19 18 11 8 10 9 6 5 10 8 9 13 18 19 20 20 19 20 19 23 21 19 17 16 13 11 13 9 3 4 7 7 5 8 9 8 8 7
7 6 7 10 12 11 10 7 8 5 5 4 5 6 7 9 12 17 17 16 16 19 21 21 21 23 21 20 17 15 11 13 4 4 5 7 9 5 7 6 8 8 8 8
8 7 9 10 10 6 7 6 7 5 3 1 4 5 9 13 17 17 18 15 15 18 20 21 23 22 21 20 16 14 12 10 7 8 8 9 10 9 9 8 11 11 10 8
13 14 15 12 8 7 6 6 5 1 2 5 6 8 13 15 15 17 17 17 17 18 18 18 20 22 23 19 17 14 14 13 15 14 12 11 15 12 10 9 10 10 10 8
25 18 14 14 10 8 5 3 4 6 9 9 9 12 14 15 14 14 15 15 18 19 22 23 22 21 22 20 19 15 17 16 15 15 14 12 15 14 12 11 11 9 11 12
15 16 11 7 5 8 5 6 7 9 11 10 11 14 14 15 11 13 15 19 20 22 20 23 22 27 19 22 22 19 17 16 15 15 13 12 16 15 12 13 11 10 11 9
10 9 7 6 6 6 7 9 10 11 11 11 10 12 12 16 14 14 18 15 23 17 18 22 25 27 22 24 21 17 18 19 19 19 19 16 17 16 16 14 14 13 10 9
5 5 5 5 5 8 9 9 9 10 11 12 13 14 13 14 16 18 16 19 24 18 21 24 26 26 24 24 21 17 18 20 22 23 24 25 20 18 18 17 15 13 12 12
2 5 7 8 9 10 13 13 14 15 16 17 17 18 17 15 14 12 15 20 23 24 26 26 26 25 23 22 20 18 20 21 22 24 26 26 26 22 20 20 18 18 17 15
7 8 10 11 9 11 13 18 17 17 17 18 18 17 15 13 12 15 17 22 21 21 23 24 22 23 23 21 21 20 24 26 28 29 31 28 25 26 25 25 25 23 21 20
7 8 10 12 12 15 17 19 19 17 16 15 13 10 7 10 15 20 21 23 22 21 22 23 22 22 23 22 20 22 24 26 29 31 32 32 31 28 27 26 26 23 20 17
12 13 14 12 13 16 17 17 13 12 9 12 14 15 16 15 16 18 21 19 17 18 19 18 21 22 23 20 20 22 25 28 29 30 31 31 30 31 30 28 26 24 24 22
13 14 15 19 20 20 17 14 9 13 16 19 20 18 17 17 16 15 14 14 15 16 18 19 19 20 19 20 23 25 23 24 26 29 30 30 31 32 31 30 26 25 21 20

GFSNGP_925_spd_009.txt.gz
Wind_Speed
3 4 2 1 3 5 6 4 5 6 7 7 9 9 8 7 6 6 5 5 5 4 9 6 7 5 1 3 8 11 13 14 16 16 17 17 19 20 22 19 16 18 13 10
1 6 6 3 5 6 5 4 6 3 4 3 5 6 7 7 7 6 5 4 3 1 7 7 9 7 5 6 7 8 9 13 14 17 18 18 18 18 16 18 19 9 15 15
3 4 5 6 7 6 4 3 6 6 7 7 5 9 8 8 7 6 6 5 4 6 11 11 14 11 9 8 8 9 11 13 15 16 17 18 18 15 14 13 8 14 16 11
2 3 2 6 4 6 4 1 3 3 9 10 8 5 6 7 7 7 7 6 7 12 12 15 14 10 9 11 11 10 13 14 15 18 20 19 18 16 17 15 11 18 8 3
4 3 5 6 5 6 6 7 5 8 6 5 4 3 4 7 6 7 7 12 12 12 10 10 8 9 13 13 11 13 17 16 17 19 21 21 22 21 16 14 11 4 4 1
2 4 6 6 3 4 4 5 10 8 9 8 7 3 5 8 6 9 11 6 3 4 2 2 9 11 9 9 14 18 18 16 17 20 19 18 17 11 6 5 3 5 2 2
3 3 8 7 4 2 5 7 8 11 11 9 8 5 3 6 7 5 4 7 8 7 3 5 5 10 16 18 18 20 17 16 18 15 13 12 13 13 9 7 5 6 1 1
3 1 8 7 4 7 6 1 9 8 8 11 7 5 6 6 6 12 12 8 7 6 6 5 11 16 18 18 18 16 17 20 18 12 11 10 10 8 5 5 7 4 2 3
9 6 4 6 5 4 6 6 7 8 6 9 7 6 5 6 7 9 7 6 4 4 6 10 12 13 14 16 19 20 22 25 18 12 10 9 7 4 4 5 3 4 5 5
2 5 8 8 5 4 7 6 6 7 8 9 7 7 7 6 8 7 5 3 3 6 9 12 14 13 17 20 20 19 23 23 13 12 8 8 5 3 4 2 4 7 7 6
5 7 5 7 7 6 6 5 6 7 8 9 8 7 8 6 7 6 4 1 5 8 11 15 15 16 19 20 16 14 19 16 11 9 10 4 2 3 3 4 6 8 7 7
7 8 6 6 6 7 9 9 8 8 6 7 12 9 10 8 6 5 3 3 7 10 14 17 17 22 21 18 16 16 17 17 16 11 8 6 5 4 3 5 7 8 8 7
8 6 7 4 5 6 9 8 6 9 12 12 12 15 11 5 6 5 3 5 9 12 15 17 20 23 19 17 14 13 19 20 16 9 7 7 8 9 9 7 7 6 5 7
7 5 2 4 5 6 7 10 19 19 18 15 15 10 7 6 6 4 4 9 11 14 17 17 18 17 18 18 15 17 18 15 12 12 10 10 8 10 8 6 7 7 6 6
6 7 5 4 6 9 18 19 13 11 11 10 9 9 7 6 3 4 9 11 12 15 17 15 17 21 19 18 17 17 16 15 9 13 11 9 8 10 11 8 7 7 8 7
1 3 5 6 11 12 12 10 13 5 5 4 8 7 4 1 4 8 10 10 13 15 15 17 18 20 21 19 19 18 16 14 11 9 8 9 10 12 11 11 8 10 10 9
5 5 8 11 12 12 11 7 6 7 8 7 8 4 1 4 8 10 10 11 12 13 16 17 18 19 21 19 21 17 16 15 14 13 13 11 10 11 12 13 12 12 11 11
13 16 15 13 13 10 5 4 5 5 5 5 4 3 6 7 9 12 12 11 13 14 16 18 15 20 19 22 22 18 19 18 16 17 17 18 14 13 12 14 15 13 11 10
25 21 19 16 10 6 4 2 5 6 3 4 5 8 9 13 12 13 12 13 17 20 23 15 16 19 22 24 18 19 23 22 20 18 16 16 15 14 14 15 15 15 13 13
14 12 10 9 7 3 1 3 4 6 6 7 7 9 12 15 12 12 13 16 18 21 18 13 19 22 23 24 21 21 23 21 20 18 16 16 16 15 16 15 15 17 16 15
10 9 7 5 3 3 4 4 6 6 6 6 7 9 11 14 10 11 13 11 20 16 18 20 21 25 24 23 23 23 23 20 19 20 19 21 21 23 21 20 19 18 19 19
4 3 3 1 1 4 5 8 7 7 9 11 12 12 12 17 15 13 15 17 20 19 21 21 21 24 22 22 25 22 22 21 19 21 23 23 24 26 28 27 23 22 21 21
2 2 4 7 8 9 11 11 11 11 13 15 17 18 18 19 16 14 12 14 16 20 21 20 22 23 21 22 24 21 21 20 22 25 26 27 28 29 31 30 29 26 25 23
8 8 8 8 8 8 10 14 14 14 14 15 15 15 15 15 16 16 17 16 18 22 19 18 20 21 21 22 20 20 22 22 21 24 26 28 30 30 31 32 30 30 30 29
5 7 9 10 11 13 16 17 17 17 15 14 12 14 14 15 17 20 17 19 19 17 15 15 16 17 19 19 20 22 20 20 21 23 25 26 28 29 30 29 29 31 31 30
8 10 12 12 14 17 20 20 19 18 16 15 19 18 19 19 19 21 20 17 14 12 12 11 12 15 16 19 20 21 22 23 24 24 24 26 27 28 29 30 30 30 31 30
14 17 19 20 21 24 25 18 16 16 15 16 16 17 16 17 18 18 18 12 8 7 8 11 16 18 16 15 15 17 19 20 21 23 24 27 29 28 28 29 31 31 31 29

GFSNGP_925_spd_012.txt.gz
Wind_Speed
2 3 2 2 4 6 6 5 5 5 7 6 11 11 9 8 7 7 7 6 6 5 10 11 12 15 12 9 8 8 9 10 12 14 16 19 21 21 21 20 18 18 16 8
1 4 5 3 6 6 4 4 7 4 8 6 3 8 8 10 9 7 7 7 6 8 14 18 18 17 13 11 10 11 12 13 15 16 17 20 23 22 20 18 17 18 8 13
4 3 5 6 9 9 5 5 6 6 8 6 4 9 12 9 9 8 7 7 7 8 14 20 18 15 13 10 13 14 13 15 18 18 18 22 23 22 21 19 17 12 12 13
2 3 2 6 2 3 5 4 7 3 5 8 4 3 6 6 8 8 7 6 7 10 11 13 12 11 10 13 15 15 15 18 19 18 19 24 24 23 24 20 17 14 11 3
4 3 6 6 5 7 8 8 9 7 4 5 4 4 4 7 6 7 7 12 9 7 7 8 7 6 10 14 13 13 18 21 19 16 20 23 22 21 17 12 8 4 3 2
3 3 6 7 3 3 3 5 8 8 8 8 6 3 8 9 8 10 10 5 4 4 3 3 1 5 6 11 16 19 21 20 17 16 20 19 18 13 14 11 7 5 6 3
3 3 8 8 2 2 5 7 6 9 8 8 6 6 2 4 6 7 7 9 9 8 5 2 2 6 11 14 14 16 17 18 19 22 20 16 16 15 15 12 7 7 4 3
3 2 7 6 3 7 6 2 6 8 8 13 6 7 5 6 7 13 16 13 8 6 4 2 5 9 11 11 15 19 20 21 24 25 16 14 15 14 12 6 6 6 4 5
9 6 4 6 5 4 2 3 5 7 7 12 9 7 8 6 9 14 13 11 6 4 2 5 7 9 9 15 17 20 19 18 23 16 9 13 13 12 8 5 5 4 8 9
2 4 8 8 6 6 6 8 4 6 7 10 7 8 6 7 8 11 11 7 3 1 4 8 10 10 11 17 18 19 15 16 18 11 11 10 11 9 6 4 6 9 11 11
5 9 6 9 8 10 7 6 5 4 6 8 9 7 11 9 10 10 8 5 1 2 5 9 11 12 15 18 15 16 15 16 20 17 15 10 8 7 6 7 9 11 12 10
6 10 5 7 5 2 7 9 8 7 6 5 7 10 13 8 11 6 5 3 2 4 7 11 13 16 17 12 11 13 16 17 19 17 17 9 10 10 9 9 8 10 11 12
8 2 6 6 4 3 5 5 6 6 7 10 13 17 17 9 6 8 6 3 5 6 9 12 15 16 15 11 12 14 16 18 18 17 12 10 10 13 14 12 11 9 10 10
7 2 5 4 5 1 4 9 17 18 19 21 20 17 9 6 8 8 7 7 5 7 10 13 15 15 14 13 16 15 17 17 16 15 12 11 14 13 11 14 13 12 9 9
6 7 3 3 8 9 15 18 15 13 15 14 11 11 8 7 6 8 8 5 5 8 11 12 14 16 12 16 17 17 18 18 18 14 14 16 13 11 13 16 16 14 12 11
4 5 7 11 11 12 14 14 17 11 6 3 6 6 7 6 8 7 5 5 6 9 11 11 12 12 16 16 19 19 21 17 17 16 14 12 13 15 15 16 17 16 15 13
3 6 8 12 12 13 14 11 11 7 10 7 8 7 7 9 8 7 7 6 7 10 11 14 16 16 15 17 17 22 21 21 18 20 18 19 17 16 16 15 16 17 18 15
17 18 16 15 13 10 6 7 9 7 4 5 6 7 8 8 9 10 10 9 11 12 13 15 12 10 13 18 20 23 23 20 21 24 24 23 22 21 20 18 16 17 19 16
23 18 17 14 8 5 1 1 1 2 2 4 6 9 10 11 11 13 11 13 15 14 16 14 12 14 17 20 20 21 22 22 25 24 21 23 22 20 20 21 19 18 18 20
13 12 12 8 4 2 2 2 4 5 4 5 6 9 11 15 12 11 10 13 16 15 13 14 16 19 21 23 20 20 22 22 23 24 21 19 19 20 20 20 20 21 20 22
7 7 6 6 4 4 4 5 7 7 6 7 8 10 12 14 11 9 10 12 16 13 13 16 17 18 18 21 20 22 22 21 22 23 21 19 21 22 24 25 27 27 26 25
2 2 2 3 5 6 6 6 6 7 9 11 13 15 15 16 16 15 16 20 22 16 13 16 18 17 19 21 21 20 19 19 20 21 21 21 23 25 27 28 28 29 29 30
5 4 3 3 4 6 8 7 7 8 11 14 16 18 18 20 18 13 13 16 15 15 16 19 18 16 17 19 18 18 17 17 17 17 19 21 23 23 24 25 27 28 29 30
1 4 6 8 10 14 16 19 19 19 20 21 20 20 18 19 20 17 19 20 20 19 19 19 15 13 14 15 16 16 18 20 16 17 20 20 21 22 22 24 26 28 29 29
11 12 14 16 15 13 18 21 22 21 23 22 22 23 20 19 18 23 20 23 24 23 18 13 10 11 13 14 16 16 17 17 18 20 21 22 22 22 24 26 27 28 28 29
12 13 13 12 13 15 14 15 15 17 19 20 19 17 23 25 24 21 20 22 21 20 11 8 9 12 16 16 14 13 13 14 16 17 18 21 23 25 27 27 29 28 28 28
9 12 12 12 15 17 19 20 20 20 21 21 24 22 22 24 25 25 22 18 20 10 7 6 9 12 12 12 12 12 13 14 16 19 21 23 26 28 31 33 34 31 28 28

GFSNGP_925_spd_015.txt.gz
Wind_Speed
1 1 2 2 4 8 7 4 6 3 8 6 9 13 12 10 12 14 14 12 10 9 13 13 14 15 13 13 10 8 8 11 11 12 13 15 18 22 20 19 16 14 15 13
4 1 3 3 6 7 8 4 10 6 14 11 1 6 11 14 16 15 14 12 11 12 15 18 19 14 12 12 9 8 11 13 13 14 15 17 19 23 21 18 16 14 10 9
3 2 2 5 9 11 5 6 7 9 8 5 5 10 14 15 16 16 14 13 12 13 15 17 14 13 12 10 7 9 13 14 14 17 17 17 19 20 19 17 16 12 10 10
2 1 2 4 2 2 10 6 13 4 4 5 3 3 7 13 17 15 14 12 11 13 13 9 9 9 8 6 7 12 13 13 17 18 17 16 18 17 17 16 12 8 8 3
2 3 5 5 3 5 6 6 12 13 6 3 4 2 5 12 13 15 13 13 12 11 8 7 7 7 4 3 6 9 13 16 17 17 16 14 15 15 15 12 10 7 4 4
3 2 5 5 2 3 3 4 2 9 7 8 8 3 5 13 14 11 11 10 9 7 9 10 8 4 1 3 8 10 12 14 16 15 15 16 15 14 14 12 11 9 5 5
2 4 7 6 1 2 3 4 1 7 7 11 7 6 2 6 9 16 15 16 17 15 11 10 7 2 2 6 7 9 14 17 15 14 17 16 12 12 13 11 9 7 7 5
3 1 6 5 3 5 4 2 2 7 9 14 9 6 5 6 10 14 16 17 17 16 13 8 2 2 4 5 7 12 14 14 12 15 16 9 9 10 10 9 6 7 7 7
8 5 3 5 4 1 1 3 2 3 5 8 6 7 9 10 11 16 18 16 12 13 10 4 1 3 4 5 11 13 14 12 11 14 11 9 10 9 8 6 5 6 7 8
1 3 7 10 8 8 7 10 6 7 7 9 11 9 8 9 11 13 13 11 8 7 5 2 2 4 6 9 13 13 10 10 13 13 14 12 11 9 7 6 6 7 9 10
4 8 5 8 9 11 9 7 8 6 6 10 10 12 13 12 12 15 18 10 9 6 4 2 4 6 8 11 11 7 8 10 14 15 15 13 12 10 7 7 8 9 10 10
5 8 4 6 4 2 4 5 6 6 2 3 7 11 16 10 15 14 10 10 6 4 2 3 5 8 9 9 7 7 9 10 12 12 13 12 11 9 11 11 12 12 13 14
5 3 4 6 8 4 5 5 2 3 5 11 14 18 19 15 11 9 7 6 4 4 4 5 7 9 9 6 6 10 11 12 12 12 12 10 9 10 11 11 13 13 13 14
4 4 5 2 4 7 9 15 22 22 22 22 22 20 16 8 2 8 10 7 6 6 6 7 7 8 5 5 9 11 13 13 13 12 12 11 10 11 12 12 11 11 13 13
11 6 2 7 11 12 16 18 18 15 16 18 17 10 5 7 11 7 6 7 6 8 9 8 6 5 5 8 13 14 13 12 15 15 15 14 15 16 13 11 12 13 14 14
8 11 13 15 14 14 17 15 14 11 10 6 7 7 8 7 5 6 7 8 10 11 8 6 8 8 11 11 12 11 12 16 18 17 15 13 15 14 13 13 13 14 14 15
4 8 11 13 14 13 12 11 9 7 5 7 5 5 8 7 6 8 10 11 14 15 10 9 13 14 13 10 10 12 16 17 19 20 14 15 15 17 17 15 14 15 15 16
18 17 16 11 10 8 5 5 2 1 2 4 3 4 5 6 9 12 12 12 13 14 14 12 13 13 13 14 15 18 17 17 14 16 18 18 16 18 19 16 16 17 17 17
19 16 14 12 9 5 2 1 1 1 2 3 4 5 7 10 12 13 13 13 15 14 17 10 12 13 14 17 17 17 18 18 16 17 18 19 17 16 17 16 17 17 18 17
9 6 6 5 6 7 6 6 6 6 5 5 6 7 10 12 10 11 11 13 16 16 15 14 13 14 14 14 14 15 18 17 16 18 18 17 16 15 15 19 19 18 19 19
5 4 5 6 6 7 7 8 9 10 10 9 10 13 14 17 15 13 11 12 20 16 14 14 13 13 15 16 16 18 17 17 17 17 18 17 15 14 16 18 19 21 21 23
3 4 6 7 9 10 12 11 11 13 14 15 16 18 19 21 20 17 18 19 20 16 15 15 14 15 18 15 14 15 19 20 17 16 15 14 14 14 14 15 17 19 21 23
7 8 8 10 9 9 11 16 18 16 16 18 19 21 18 18 15 12 13 13 15 17 19 21 22 20 16 13 14 15 15 14 14 17 13 13 16 18 18 19 19 19 21 22
8 10 10 10 10 16 15 18 20 19 18 16 15 17 21 23 21 16 21 25 25 23 23 25 24 16 13 11 12 13 16 15 15 16 16 17 16 18 19 18 20 22 24 25
13 12 14 14 13 12 14 17 16 17 19 20 20 21 21 20 20 26 24 26 24 22 23 20 20 17 11 8 10 11 10 10 11 12 13 13 14 15 17 18 20 21 24 27
12 12 11 11 11 12 14 16 16 17 19 19 20 22 24 25 26 25 28 28 27 23 17 13 9 6 6 6 7 7 8 9 11 12 13 14 15 17 19 22 25 26 27 30
11 11 10 8 10 12 14 15 16 16 18 20 23 25 26 25 27 27 28 29 26 13 4 3 3 6 7 7 7 7 9 10 12 14 15 17 18 19 22 25 28 31 31 32